Regional Weather Roundup
Issued by NWS Portland, ME

Current Version | Previous Version | Text Only | Print | Product List | Glossary Off
Versions: 1 2 3 4 5 6 7 8 9 10 11 12 13 14 15 16 17 18 19 20 21 22 23 24 25 26 27 28 29 30 31 32 33 34 35 36 37 38 39 40 41 42 43 44 45 46 47 48 49 50
585 ASUS41 KGYX 251005 RWRGYX WEATHER ROUNDUP FOR MAINE AND NEW HAMPSHIRE NATIONAL WEATHER SERVICE GRAY ME 600 AM EDT SAT MAR 25 2017 MEZ002-005-006-010-012-015-018-020-021-024-026-027-029-251100- MAINE CITY SKY/WX TMP DP RH WIND PRES REMARKS PORTLAND CLOUDY 34 31 88 NW6 30.12R SANFORD CLOUDY 33 32 96 CALM 30.11R FOG BAR HARBOR CLEAR 28 26 92 CALM 30.12R WISCASSET CLOUDY 33 31 92 CALM 30.13R ROCKLAND CLEAR 33 29 85 N3 30.12R FRYEBURG CLOUDY 24 23 96 CALM 30.12R LEWISTONAUBURN PTCLDY 29 28 96 CALM 30.13R AUGUSTA CLEAR 26 24 92 N6 30.13R FOG WATERVILLE PTCLDY 22 20 92 CALM 30.10R BANGOR MOCLDY 29 26 89 NW7 30.11R GREENVILLE N/A 27 26 96 NW14G21 30.03R WCI 16 MILLINOCKET CLOUDY 29 25 85 NW8 30.09R HOULTON CLOUDY 28 23 81 CALM 30.04R PRESQUE ISLE MOCLDY 29 24 82 W7 30.06R FRENCHVILLE CLOUDY 29 21 72 W9G18 30.01R CARIBOU CLOUDY 28 22 78 W3 30.03R $$ NHZ002-005-008-009-011-012-014-251100- NEW HAMPSHIRE CITY SKY/WX TMP DP RH WIND PRES REMARKS PORTSMOUTH CLOUDY 35 34 95 CALM 30.10R FOG ROCHESTER CLOUDY 34 32 92 CALM 30.09R NASHUA CLOUDY 35 35 100 CALM 30.12R FOG MANCHESTER CLOUDY 37 33 85 CALM 30.09R CONCORD CLOUDY 35 32 88 CALM 30.11R FOG LACONIA CLOUDY 33 32 96 CALM 30.10R PLYMOUTH MOCLDY 34 32 92 CALM 30.12R BERLIN CLOUDY 31 27 85 CALM 30.12R WHITEFIELD CLOUDY 30 27 88 CALM 30.12S JAFFREY CLOUDY 36 35 96 CALM 30.08R KEENE CLOUDY 34 33 96 CALM 30.12R LEBANON CLOUDY 34 33 96 N5 30.12S FOG MT WASHINGTON MOCLDY 21 19 93 NW40 N/A WCI 1 $$ VTZ005-007-008-251100- VERMONT CITY SKY/WX TMP DP RH WIND PRES REMARKS ST JOHNSBURY N/A 30 29 96 MISG 30.14R MONTPELIER FOG 31 31 100 NW3 30.17R VSB 1/2 BURLINGTON CLOUDY 33 31 92 N6 30.19R $$ MAZ007-012-024-CTZ003-RIZ002-NYZ038-NYZ072-251100- SOUTHERN NEW ENGLAND AND NY CITY SKY/WX TMP DP RH WIND PRES REMARKS BOSTON CLOUDY 41 34 76 N3 30.10R WORCESTER CLOUDY 42 32 67 CALM 30.08R NANTUCKET CLOUDY 43 40 89 W13 30.10R PROVIDENCE CLOUDY 41 34 76 SW3 30.10R HARTFORD LGT RAIN 38 32 79 S6 30.10R ALBANY LGT RAIN 38 35 89 N5 30.15R FOG NEW YORK CITY CLOUDY 54 37 52 S7 30.08R $$ ANZ081-ANZ082-ANZ150-NHZ014-MEZ023>029-251100- COASTAL MARINE OBSERVATIONS STATION/POSITION TIME TEMP WIND PRES WAVE AIR SEA DIR/SP/G HT/PER (UTC) (F) (DEG/KT/KT) (MB) (FT/S) MOUNT DESERT ROC 1000 34 1019.0R MATINICUS ROCK 0900 35 350/ 11/ 12 1018.2R ISLE OF SHOALS 0900 37 10/ 7/ 7 1018.9R JEFFREYS LEDGE 0906 40 N/A 3/ 6 CASHES LEDGE BUO 0850 38 40 1018.9 4/ 7 GEORGES BANK BUO 0850 44 41 1018.5 6/ 6 $$ .............KEY.............. WCI - WIND CHILL TC - TEMPERATURE IN CELSIUS VSB - VISIBILITY IN MILES HX - HEAT INDEX FAIR- INDICATES FEW OR NO CLOUDS BELOW 12,000 FT, WITH NO SIGNIFICANT WEATHER AND/OR OBSTRUCTIONS TO VISIBILITY.

USA.gov is the U.S. government's official web portal to all federal, state and local government web resources and services.